Tracking 18795 objects as of 22-August-2017
HD Live streaming from Space Station
objects crossing your sky now

COSMOS 252 DEB

Track COSMOS 252 DEB now!
10-day predictions


NORAD ID: 3559
Int'l Code: 1968-097M
Perigee: 520.0 km
Apogee: 1,342.0 km
Inclination: 62.3 °
Period: 103.5 minutes
Semi major axis: 7302 km
RCS: 0.1149 m2 (medium)
Launch date: November 1, 1968
Source: Commonwealth of Independent States (former USSR) (CIS)
Launch site: TYURATAM MISSILE AND SPACE COMPLEX (TTMTR)

Note: This is SATELLITE DEBRIS
Your satellite tracking list
Your tracking list is empty





NASA's NSSDC Master Catalog

Two Line Element Set (TLE):
1  3559U 68097M   17234.11580901 +.00000831 +00000-0 +20839-3 0  9991
2  3559 062.2943 073.6105 0562850 165.4570 196.3451 13.91350091393811
Source of the keplerian elements: AFSPC